Location: Elstree
(51.6403°N, 0.2969°W)
Time: 05:31:55
(UTC+00:00)

deb Delta 107 - Pass Details

Date: 29 January 2022
Orbit: 707 x 861 km, 97.7° (Epoch: 23 May)

Event Time Altitude Azimuth Distance (km) Brightness Sun altitude
Rises 06:13:32 0° 18° (NNE) 3,117 ? -14.1°
Reaches altitude 10° 06:15:54 10° 26° (NNE) 2,198 ? -13.7°
Maximum altitude 06:20:28 42° 97° (E) 1,025 ? -13.0°
Drops below altitude 10° 06:25:05 10° 168° (SSE) 2,230 ? -12.3°
Sets 06:27:30 0° 176° (S) 3,168 ? -12.0°
